User: anonymous   Login
Location: LDNL
(36.4545°S, 141.6685°E)
Time: 01:20:13
(UTC+10:00)
Language:

A-11 Canister half - Orbit

View from above orbital plane
View from above orbital plane
View from above satellite
View from above satellite

Ground track
Ground track

The orbit data is extracted from the following two-line orbital elements,

1 00053U 60009E   24173.90276127  .00000037  00000-0  12047-2 0  9990
2 00053  47.2782  59.5184 0099656  91.1028 270.1180 12.17338151847075
Epoch (UTC): 21 June 2024 21:39:58
Eccentricity: 0.0099656
inclination: 47.2782°
perigee height: 1524 km
apogee height: 1684 km
right ascension of ascending node: 59.5184°
argument of perigee: 91.1028°
revolutions per day: 12.17338151
mean anomaly at epoch: 270.1180°
orbit number at epoch: 84707

The dashed part of the orbit path shows where the satellite is in the earth's shadow,  

DLR